Regional Weather Roundup
Issued by NWS Boston, MA

Home | Current Version | Previous Version | Text Only | Print | Product List | Glossary On
Versions: 1 2 3 4 5 6 7 8 9 10 11 12 13 14 15 16 17 18 19 20 21 22 23 24 25 26 27 28 29 30 31 32 33 34 35 36 37 38 39 40 41 42 43 44 45 46 47 48 49 50
339
ASUS41 KBOX 061610
RWRBOX

REGIONAL WEATHER ROUNDUP
NATIONAL WEATHER SERVICE TAUNTON MA
1100 AM EST SAT FEB 06 2016

NOTE:  "FAIR" INDICATES FEW OR NO CLOUDS BELOW 12,000 FEET WITH NO
SIGNIFICANT WEATHER AND/OR OBSTRUCTIONS TO VISIBILITY.  THE FOLLOWING
OBSERVATION LOCATIONS DO NOT REPORT PRESENT WEATHER...PROVINCETOWN...
SMITHFIELD...BLOCK ISLAND...KEENE...AND OXFORD.

MAZALL-061700-
EASTERN MASSACHUSETTS

CITY           SKY/WX    TMP DP  RH WIND       PRES   REMARKS
BOSTON         CLOUDY    30  22  72 SW8       30.38F WCI  22
BEVERLY        MOSUNNY   29  21  72 SW6       30.36F WCI  23
LAWRENCE       MOSUNNY   29  23  78 W8        30.37F WCI  21
BEDFORD        MOSUNNY   27  27 100 SW7       30.36F WCI  19
BLUE HILL        N/A     26  23  88 SW8       30.34F WCI  18
NORWOOD        CLOUDY    29  23  78 SW6       30.39F WCI  23
MARSHFIELD     CLOUDY    32  27  80 SW3       30.40F HAZE
PLYMOUTH       CLOUDY    29  23  78 SW5       30.39S WCI  24
TAUNTON          N/A     32  25  75 SW3       30.39S
NEW BEDFORD      N/A     31  24  75 VRB5      30.39F WCI  26
$$

MAZALL-061700-
CAPE COD AND THE ISLANDS

CITY           SKY/WX    TMP DP  RH WIND       PRES   REMARKS
FALMOUTH       MOSUNNY   30  23  74 W5        30.39  WCI  25
HYANNIS        MOSUNNY   31  21  66 CALM      30.38F
CHATHAM        MOSUNNY   32  29  88 SW5       30.41R WCI  27
PROVINCETOWN   CLOUDY    33  24  69 SW8       30.40R WCI  26
NANTUCKET      SUNNY     34  20  56 W6        30.40F WCI  29
MARTHAS VNYRD  MOSUNNY   33  21  61 W6        30.40F WCI  28
$$

MAZALL-061700-
CENTRAL AND WESTERN MASSACHUSETTS

CITY           SKY/WX    TMP DP  RH WIND       PRES   REMARKS
WORCESTER        N/A    N/A N/A N/A MISG      30.32F
FITCHBURG      MOSUNNY   33  19  56 W9G21     30.35F WCI  25
ORANGE         MOSUNNY   28  22  78 S3        30.33F
SPRINGFIELD    MOSUNNY   30  19  63 S8        30.35F WCI  23
WESTFIELD      CLOUDY    31  20  63 S7        30.36F WCI  24
NORTH ADAMS    SUNNY     32  18  56 SE7       30.32F WCI  26
PITTSFIELD     SUNNY     31  17  56 SW8       30.28F WCI  23
$$

RIZALL-061700-
RHODE ISLAND

CITY           SKY/WX    TMP DP  RH WIND       PRES   REMARKS
PROVIDENCE     CLOUDY    31  25  78 SW5       30.41S WCI  26
NEWPORT        SUNNY     32  23  69 CALM      30.40S
BLOCK ISLAND   CLOUDY    34  21  60 W7        30.41S WCI  28
SMITHFIELD     MOSUNNY   32  25  74 CALM      30.36F
WESTERLY       CLOUDY    33  26  75 CALM      30.42S
$$

CTZALL-061700-
CONNECTICUT

CITY           SKY/WX    TMP DP  RH WIND       PRES   REMARKS
BRADLEY INTL   CLOUDY    29  22  75 S8        30.37F WCI  21
HARTFORD       CLOUDY    32  24  72 S6        30.40F WCI  26
BRIDGEPORT     CLOUDY    36  23  59 SW8       30.42F WCI  30
DANBURY        CLOUDY    33  16  49 W8        30.39F WCI  26
GROTON         MOSUNNY   33  24  69 W5        30.42S WCI  29
NEW HAVEN      MOSUNNY   33  21  61 SW10      30.41F WCI  25
CHESTER        FAIR      34  21  60 SW7       30.39F WCI  28
MERIDEN        PTSUNNY   33  21  61 S6        30.40F WCI  28
WILLIMANTIC    CLOUDY    29  23  78 CALM      30.40F
OXFORD         MOSUNNY   32  14  47 MISG      30.38F
$$

MEZ002-015-021-024-NHZ003-005-008-011-012-014-VTZ005-008-061700-
NORTHERN NEW ENGLAND

CITY           SKY/WX    TMP DP  RH WIND       PRES   REMARKS
PORTLAND ME    MOSUNNY   29  20  69 SW6       30.32F WCI  23
BANGOR ME      PTSUNNY   28  16  60 SW10      30.27F WCI  19
CONCORD NH     CLOUDY    29  18  63 SE5       30.32F WCI  24
MANCHESTER NH  CLOUDY    29  22  75 S3        30.33F
NASHUA NH      CLOUDY    34  25  69 CALM      30.35F
PORTSMOUTH NH  PTSUNNY   29  20  70 SW5       30.33F WCI  24
JAFFREY NH     CLOUDY    29  19  66 SW8       30.30F WCI  21
KEENE NH       MOSUNNY   28  18  64 S3        30.33F
BURLINGTON VT  PTSUNNY   32  19  58 S20G25    30.21F WCI  20
MT. WASHINGTON FOG        7   7 100 W46         N/A  VSB 0   WCI -21
$$

NYZ052-076-061700-
EASTERN NEW YORK

CITY           SKY/WX    TMP DP  RH WIND       PRES   REMARKS
ALBANY         PTSUNNY   34  18  52 S9G18     30.32F WCI  27
NEW YORK CITY  PTSUNNY   38  18  44 SW7       30.42F
$$

ANZALL-061700-
MARINE OBSERVATIONS

STATION/POSITION TIME  TEMP    WIND        PRES    VSBY  WAVE
                       AIR SEA DIR/SP/G                  HT/PER
                 (UTC) (F)     (DEG/KT/KT) (MB)    (MI)  (FT/S)
BOSTON BUOY      1550   32 42  250/ 12/ 14 1028.4S         4/ 8
BUZZARDS BAY     1500          270/  5/  6 1030.2R
NANTUCKET SOUND  1550   33 40  280/  6/  8 1029.3F         2/10
MASS BAY-STELLWA 1504   31 43  270/ 14/ 17   N/A    1 7/8  4/ 8
ISLE OF SHOALS   1600   31     240/ 13/ 14 1026.7F
S OF BLOCK IS    NOT AVBL
$$

......................KEY.........................
  SKY/WX - SKY CONDITION/PRESENT WEATHER
  TMP    - TEMPERATURE IN FAHRENHEIT
  DWPT   - DEWPOINT IN FAHRENHEIT
  RH     - RELATIVE HUMIDITY IN PERCENT
  WIND   - DIRECTION AND SPEED IN MPH
  PRES   - MEAN SEA LEVEL PRESSURE IN INCHES OF HG
  WCI    - WIND CHILL INDEX
  VSB    - VISIBILITY IN MILES
  HX     - HEAT INDEX
  TC     - TEMPERATURE IN CELSIUS
  VRB    - VARIABLE WIND DIRECTION
  N/A    - NOT AVAILABLE




USA.gov is the U.S. government's official web portal to all federal, state and local government web resources and services.